Location: Newark
(44.3299°N, 23.7597°E)
Time: 06:09:06
(UTC+00:00)

ISS - Visible Passes

Search period start: 25 January 2022 00:00
Search period end: 04 February 2022 00:00
Orbit: 413 x 422 km, 51.6° (Epoch: 25 January)

Date Brightness Start Highest point End Pass type
(mag) Time Alt. Az. Time Alt. Az. Time Alt. Az.
25 Jan -2.3 16:29:57 10° WNW 16:32:52 27° NNW 16:34:49 16° NE visible
25 Jan -0.5 18:07:33 10° NW 18:07:45 11° NW 18:07:45 11° NW visible
26 Jan -1.9 17:19:24 10° NW 17:21:41 22° N 17:21:41 22° N visible
27 Jan -2.1 16:31:10 10° WNW 16:33:53 22° N 16:35:36 16° NE visible
27 Jan -0.6 18:08:15 10° NW 18:08:32 12° NW 18:08:32 12° NW visible
28 Jan -2.2 17:20:12 10° NW 17:22:28 25° N 17:22:28 25° N visible
29 Jan -2.2 16:32:05 10° NW 16:34:52 24° N 16:36:26 17° NE visible
29 Jan -0.8 18:08:47 10° NW 18:09:22 14° NW 18:09:22 14° NW visible
30 Jan -2.8 17:20:45 10° NW 17:23:23 38° N 17:23:23 38° N visible
31 Jan -2.8 16:32:41 10° NW 16:35:45 32° NNE 16:37:28 19° ENE visible
31 Jan -1.0 18:09:22 10° WNW 18:10:25 18° WNW 18:10:25 18° WNW visible
01 Feb -3.9 17:21:14 10° WNW 17:24:35 88° NE 17:24:35 88° NE visible
02 Feb -3.7 16:33:08 10° NW 16:36:26 57° NNE 16:38:53 16° ESE visible
02 Feb -1.0 18:10:20 10° W 18:11:50 18° WSW 18:11:50 18° WSW visible
03 Feb -2.4 17:21:53 10° WNW 17:24:59 36° SW 17:26:19 25° S visible
